LOWSLOWL

Guest
Details From LOWS - Salzburg Maxglan
To LOWL - Linz Hoersching
Flight Number -
Tags Generated
Created
Modified
Stats Distance 54 nm / 99 km
Max Altitude 0 ft / 0 m
Waypoints 2
Social Downloads 0
Likes 0
Share VATSIM

Download

Looking for another format? Having issues loading an existing format? Contact us
Advertisement - Login to hide

Notes

Generated

Route

LOWS LOWL

ID Type Via Altitude Latitude Longitude Leg Dist Tot Dist Heading (true) Name
O LOWS APT - 0 ft / 0 m 47.80472˚ 12.99717˚ - 0 nm - -
O LOWL APT - 0 ft / 0 m 48.23240˚ 14.16739˚ 53 nm 53 nm 61° / 62° -

Altitude Profile

Advertisement - Login to hide

LOWS

Details ICAO LOWS (SZG)
Name Salzburg Maxglan
Region Austria
Timezone Europe/Vienna (UTC+1.0)
Stats Elevation 1,411 ft / 430 m (AMSL)
Location 47.793333° 13.004333°
Runways 1
Magnetic Variation 3.428° E

METAR

LOWS 152150Z 17005KT 9999 FEW050 BKN060 01/M00 Q1002 NOSIG

Decode

TAF

TAF LOWS 151715Z 1518/1618 15005KT 9999 FEW030 BKN050 TX02/1518Z TNM01/1606Z BECMG 1600/1602 20004KT SCT015 BKN035 TEMPO 1602/1618 -SN FEW005 BKN015 BECMG 1607/1609 29007KT

Decode

Departure Runways

ID Width Length Bearing (true) Bearing (mag) Surface Threshold Offset Overrun Length
16 148 ft / 45 m 9,024 ft / 2,751 m 157.08° 153.65° Concrete 656 ft / 200 m 0 ft / 0 m
34 148 ft / 45 m 9,024 ft / 2,751 m 337.09° 333.66° Concrete 787 ft / 240 m 0 ft / 0 m

LOWL

Details ICAO LOWL (LNZ)
Name Linz Hoersching
Region Austria
Timezone Europe/Vienna (UTC+1.0)
Stats Elevation 978 ft / 298 m (AMSL)
Location 48.233219° 14.187513°
Runways 1
Magnetic Variation 3.726° E

METAR

LOWL 152150Z AUTO 28004KT 9999 FEW038 BKN140 01/M01 Q1002 NOSIG

Decode

TAF

TAF LOWL 151715Z 1518/1618 24003KT 9999 FEW020 BKN050 TX03/1613Z TN00/1604Z PROB30 TEMPO 1602/1607 VRB01KT 1200 BCFG SCT130 TEMPO 1608/1618 28008KT 6000 -SHSN SCT008 BKN012

Decode

Destination Runways

ID Width Length Bearing (true) Bearing (mag) Surface Threshold Offset Overrun Length
09 197 ft / 60 m 9,802 ft / 2,988 m 86.49° 82.76° Asphalt 820 ft / 250 m 0 ft / 0 m
27 197 ft / 60 m 9,802 ft / 2,988 m 266.52° 262.79° Asphalt 492 ft / 150 m 0 ft / 0 m

Approach Navaids

Runway Type Ident Frequency Range Bearing (true) Bearing (mag) Slope Elevation
09 Localiser OEM 110.55 MHz 18 nm / 33 km 86.63° 82.91° - 955 ft / 291 m (AMSL)
09 Glidescope OEM 110.55 MHz 12 nm / 22 km 86.00° 82.27° 3.00° 964 ft / 294 m (AMSL)
09 DME OEM 110.55 MHz 18 nm / 33 km - - - 964 ft / 294 m (AMSL)
27 Localiser OEL 109.30 MHz 18 nm / 33 km 266.76° 263.04° - 978 ft / 298 m (AMSL)
27 Glidescope OEL 109.30 MHz 10 nm / 19 km 266.50° 262.77° 3.00° 996 ft / 304 m (AMSL)
27 DME OEL 109.30 MHz 18 nm / 33 km - - - 996 ft / 304 m (AMSL)

Popular Alternatives